STARLINK-32354, 61932

Orbit data source: Space-Track

STARLINK-32354, 61932 is a payload satellite owned by SpaceX/Seattle (US) in LEO that was launched on Mon, 11 Nov 2024 UTC via an FALCON 9 launch vehicle from the Air Force Eastern Test Range (AFETR). Payload-class satellites include a variety of spacecraft equipped with specific instruments for various scientific and technological missions. These include communications satellites like Starlink; space stations such as the ISS; scientific satellites like the Hubble; Earth observation satellites from companies like Planet Labs, Umbra, and HawkEye 360; GPS; miniature CubeSats for education and research; and military/defense satellites.

Loading next visibility...
Identifier
61932, 2024-207W
Orbit
LEO
Country
Flag of USUS
Related business
Manufacturer
SpaceX/Seattle
Mission
Operational Commercial Communications
Bus & Motor
STARLINK V2M, Unknown motor
Mass
730 kg wet, ~700 kg dry
Launch date (UTC)
2024-11-11 (2 years ago)
Launch vehicle
FALCON 9
Launch site
Air Force Eastern Test Range (AFETR)
Object type
Payload
Rocket body
Debris
Shape & HBR
Box + 2 Pan, 17.7 m
Radar Cross Section
33.884 m², Large (>1 m²)

Expand to show TLE details & history
Last TLE update: 11 hours ago

TLE from 11 hours ago
0 STARLINK-32354
1 61932U 24207W   26264.36033149  .00009784  00000-0  36440-3 0  9993
2 61932  42.9997 260.4740 0001280 255.3975 104.6735 15.27595908105095
Epoch: 2026-09-21T08:38Z
TLE epoch observation values (Epoch: 2026-09-21T08:38:52.640Z)
Latitude
-0.00001°
Longitude
130.51338°
Altitude
482.999 km
Speed
7.626 km/s
True Right ascension
17h 21m 53s
True Declination
0° 00' 00"
Sunlit
Object was in daylight at epoch
Visualization orbit readout
Latitude
Unknown
Longitude
Unknown
Altitude
Unknown
Speed
Unknown
Apparent Right ascension
Unknown
Apparent Declination
Unknown
Sunlit
N/A
Visualization observer readout
Local Sidereal Time
12:20:41
Azimuth
Unknown
Elevation
Unknown
Doppler factor
Unknown
Orbital elements
Apogee altitude
485.825 km
Perigee altitude
484.068 km
Semi-major axis
6,863.084 km
Eccentricity
0.00013
Inclination
42.9997°
RAAN
260.474°
Arg. of periapsis
255.3975°
True anomaly
104.68769°
Mean anomaly
104.6735°
Eccentric anomaly
104.68059°
Mean motion
3.81737 °/min
Orbital period
94.31 mins
BSTAR
0.0003644
Loading maneuver chart data...
Computing Atmospheric mass density...
Loading historical data...
Loading historical data...
Loading historical data...
Loading historical data...
Loading historical data...
Loading historical data...
Loading historical data...

Documentation

Showing up to 5 results
|